Location: Newark
(7.1028°S, 35.3258°W)
Time: 21:59:30
(UTC+00:00)

deb Explorer IX - Pass Details

Date: 01 March 2020
Orbit: 547 x 1100 km, 38.8° (Epoch: 05 April)

Event Time Altitude Azimuth Distance (km) Brightness Sun altitude
Exits shadow 05:54:02 14° 35° (NE) 2,422 ? -38.0°
Drops below altitude 10° 05:54:52 10° 37° (NE) 2,695 ? -37.8°
Sets 05:57:23 0° 40° (NE) 3,562 ? -37.2°
